[[{"header":{"parameterUnit":"m.s-1","parameterCategory":1,"la1":30.2991,"la2":30.254,"lo1":-89.0895,"lo2":-89.0444,"dy":0.0017,"dx":0.0017,"nx":28,"ny":28,"refTime":"2024-07-28T03:00:00:Z","depth":0,"parameterNumber":2,"parameterNumberName":"U-component_of_WINDS"},"data":[0,0,0,0,0,0,0,0,0,0,0,0,0,0,0,0,0,0,0,0,0,0,0,0,0,0,0,0,0,0,0,0,0,0,0,0,0,0,0,0,0,0,0,0,0,0,0,0,0,0,0,0,0,0,0,0,0,0,1.3448,1.345,0,1.3588,1.359,1.3592,1.3621,1.362,1.3619,1.3618,1.3763,1.3768,1.3772,0,0,0,0,0,0,0,0,0,0,0,0,0,1.3206,1.321,1.3448,1.345,1.3452,1.3588,1.359,1.3592,1.3621,1.362,1.3619,1.3618,1.3761,1.3767,1.3773,0,0,0,0,0,0,0,0,0,0,0,0,0,1.3325,1.3211,1.3448,1.3483,1.3487,1.3588,1.359,1.3593,1.3622,1.362,1.3618,1.3617,1.3759,1.3766,1.3774,1.385,0,0,1.3796,1.3799,0,0,0,0,0,0,0,0,1.3318,1.3334,1.3476,1.348,1.3486,1.3586,1.3558,1.3679,1.3622,1.3571,1.3618,1.3616,1.3705,1.3717,1.3747,1.3857,1.3863,1.3796,1.3801,1.3804,1.3806,0,0,0,0,0,0,0,1.331,1.3328,1.3504,1.3478,1.3484,1.3491,1.3506,1.3581,1.3645,1.3575,1.3577,1.3594,1.3708,1.374,1.375,1.3865,1.3796,1.3803,1.3807,1.381,1.4043,1.4045,0,0,0,0,0,0,1.3295,1.3321,1.3499,1.3508,1.3396,1.3497,1.3514,1.3555,1.3644,1.3656,1.3595,1.3594,1.3728,1.3742,1.3756,1.385,1.3804,1.3811,1.3815,1.4041,1.4043,1.4045,0,0,0,0,0,0,1.329,1.3311,1.3494,1.3415,1.3439,1.3503,1.3549,1.3559,1.3591,1.3659,1.3671,1.3616,1.3727,1.3745,1.3826,1.3855,1.3814,1.3821,1.4039,1.4042,1.4044,1.4039,0,0,0,0,0,0,1.3283,1.3309,1.3338,1.3415,1.3443,1.3561,1.3551,1.3563,1.3603,1.3604,1.3682,1.3693,1.3727,1.3815,1.3833,1.3864,1.3826,1.4037,1.404,1.4043,1.4037,1.4041,1.4045,0,0,0,0,0,1.3274,1.3332,1.334,1.3361,1.3481,1.3563,1.3579,1.3616,1.3605,1.3635,1.3679,1.3691,1.3849,1.3823,1.3843,1.3877,1.4035,1.4039,1.4043,1.4035,1.404,1.4045,0,0,0,0,0,0,1.3257,1.3343,1.3352,1.3437,1.3492,1.3568,1.3607,1.3621,1.3681,1.368,1.3724,1.3742,1.3819,1.3857,1.3826,1.3955,1.3941,1.395,1.3928,1.3933,1.3937,1.3927,1.3832,0,0,0,0,0,1.3263,1.3322,1.3394,1.3461,1.3489,1.3543,1.358,1.3604,1.3664,1.3687,1.3737,1.3795,1.3857,1.3897,1.3959,1.4042,1.4059,1.4076,1.408,1.4083,1.4089,1.4135,1.4143,1.4059,1.4059,1.4059,0,0,1.3276,1.333,1.3365,1.3459,1.3505,1.3565,1.3563,1.3626,1.3671,1.3697,1.3776,1.3814,1.3881,1.3963,1.4001,1.3996,1.4116,1.4088,1.409,1.4095,1.414,1.4148,1.4155,1.4062,1.4061,1.4061,0,0,1.3331,1.3378,1.3439,1.3484,1.3554,1.3589,1.3604,1.3677,1.3703,1.3783,1.3803,1.3857,1.3964,1.4011,1.4048,1.4119,1.4132,1.4138,1.4159,1.4203,1.4209,1.4216,1.424,1.4248,1.4144,1.4144,1.4144,0,1.3339,1.343,1.3468,1.3531,1.3571,1.3597,1.3658,1.3701,1.3787,1.3814,1.3807,1.3941,1.3988,1.4081,1.4097,1.4128,1.4145,1.4129,1.4205,1.4212,1.4218,1.4242,1.4251,1.4144,1.4144,1.4144,1.4144,0,1.3435,1.3498,1.3539,1.362,1.3665,1.3727,1.3775,1.3816,1.3836,1.3872,1.3952,1.4009,1.4082,1.4106,1.4126,1.4201,1.4195,1.4196,1.4183,1.4226,1.4249,1.4258,1.4145,1.4145,1.4145,1.4145,0,0,1.3483,1.3584,1.3599,1.3635,1.3713,1.3762,1.3825,1.3896,1.393,1.3988,1.4041,1.413,1.4131,1.4174,1.42,1.4238,1.4289,1.4235,1.4237,1.4242,1.4374,1.4373,1.4382,1.4298,1.43,1.4302,1.4368,0,1.3547,1.3659,1.3695,1.3789,1.3847,1.3871,1.3926,1.3979,1.4014,1.4068,1.4108,1.417,1.4167,1.4192,1.4232,1.4275,1.4316,1.4271,1.4348,1.435,1.433,1.4395,1.4394,1.4454,1.4378,1.4379,1.438,0,1.3636,1.3694,1.3793,1.3863,1.3888,1.3937,1.4004,1.4055,1.4116,1.4139,1.4186,1.4208,1.4274,1.4257,1.4349,1.4317,1.435,1.4376,1.4379,1.4388,1.4368,1.4404,1.4474,1.4483,1.4395,1.4394,1.4393,0,1.366,1.3763,1.3836,1.3867,1.395,1.3983,1.4019,1.4078,1.4118,1.4177,1.4203,1.4268,1.4304,1.4355,1.4394,1.4378,1.4482,1.4468,1.4502,1.4501,1.4523,1.4521,1.4598,1.4545,1.4545,1.4545,1.4545,0,1.3726,1.3786,1.3848,1.3892,1.3959,1.4,1.4065,1.4103,1.4155,1.4207,1.4233,1.4281,1.433,1.4385,1.4416,1.4487,1.4503,1.4523,1.4531,1.4521,1.4518,1.4543,1.454,1.4547,1.4547,1.4546,1.4546,0,1.3764,1.3808,1.3889,1.396,1.398,1.4026,1.4087,1.4131,1.4167,1.4232,1.425,1.4306,1.4372,1.4416,1.4501,1.4522,1.4598,1.4605,1.4577,1.4581,1.4612,1.4608,1.4708,1.4723,1.466,1.466,1.4661,0,1.3803,1.385,1.3926,1.3962,1.3998,1.4057,1.4097,1.4139,1.418,1.4252,1.4287,1.4354,1.441,1.4514,1.4563,1.4627,1.4635,1.4666,1.4645,1.4633,1.4635,1.4632,1.4636,1.4669,1.4669,1.467,1.467,0,1.3868,1.3887,1.3945,1.4009,1.4057,1.411,1.4163,1.4191,1.4242,1.4287,1.4354,1.4397,1.4483,1.4549,1.4618,1.4655,1.4671,1.4676,1.4687,1.4678,1.4659,1.4669,1.4585,1.4674,1.4673,1.4673,1.4673,1.4673,1.3908,1.395,1.4009,1.4072,1.4116,1.4165,1.421,1.4251,1.4307,1.438,1.4401,1.4471,1.4529,1.4623,1.4661,1.4716,1.4714,1.473,1.4734,1.4737,1.4737,1.465,1.4729,1.4729,1.4729,1.4729,1.4729,0,1.3973,1.4013,1.407,1.4143,1.4192,1.4203,1.4262,1.4302,1.4363,1.4416,1.447,1.4547,1.4611,1.4664,1.473,1.4764,1.4773,1.478,1.4778,1.4786,1.4736,1.4719,1.4772,1.4772,1.4771,1.4771,1.4771,1.4771,1.4013,1.4084,1.411,1.4203,1.4242,1.431,1.4343,1.4388,1.4431,1.4515,1.4568,1.4602,1.4655,1.4725,1.4784,1.4798,1.4821,1.4827,1.4842,1.4794,1.479,1.4785,1.477,1.4831,1.4831,1.4888,1.4888,1.4888]},{"header":{"parameterUnit":"m.s-1","parameterCategory":1,"la1":30.2991,"la2":30.254,"lo1":-89.0895,"lo2":-89.0444,"dy":0.0017,"dx":0.0017,"nx":28,"ny":28,"refTime":"2024-07-28T03:00:00:Z","depth":0,"parameterNumber":3,"parameterNumberName":"V-component_of_WINDS"},"data":[0,0,0,0,0,0,0,0,0,0,0,0,0,0,0,0,0,0,0,0,0,0,0,0,0,0,0,0,0,0,0,0,0,0,0,0,0,0,0,0,0,0,0,0,0,0,0,0,0,0,0,0,0,0,0,0,0,0,5.768,5.7679,0,5.7639,5.7639,5.7639,5.7542,5.754,5.7538,5.7536,5.7497,5.7498,5.7499,0,0,0,0,0,0,0,0,0,0,0,0,0,5.7675,5.7676,5.768,5.7679,5.7679,5.764,5.7639,5.7638,5.7542,5.754,5.7537,5.7535,5.7497,5.7498,5.7499,0,0,0,0,0,0,0,0,0,0,0,0,0,5.766,5.7676,5.768,5.7626,5.7621,5.764,5.7639,5.7638,5.7543,5.754,5.7537,5.7534,5.7496,5.7498,5.7499,5.7568,0,0,5.7503,5.7503,0,0,0,0,0,0,0,0,5.7661,5.7661,5.7634,5.763,5.7624,5.7593,5.7623,5.7615,5.7544,5.7573,5.7536,5.7533,5.7531,5.753,5.7529,5.7566,5.7564,5.7503,5.7504,5.7504,5.7505,0,0,0,0,0,0,0,5.7662,5.7662,5.7664,5.7634,5.7628,5.7604,5.7599,5.7621,5.757,5.757,5.7563,5.7559,5.7528,5.7528,5.7527,5.7563,5.7503,5.7504,5.7505,5.7505,5.7653,5.7656,0,0,0,0,0,0,5.7671,5.7663,5.7665,5.7663,5.7635,5.7607,5.7601,5.7606,5.7569,5.756,5.7562,5.7555,5.7527,5.7526,5.7526,5.7602,5.7504,5.7505,5.7506,5.765,5.7654,5.7657,0,0,0,0,0,0,5.7671,5.7672,5.7667,5.7661,5.7658,5.761,5.7617,5.7607,5.7606,5.7563,5.7553,5.7571,5.7525,5.7524,5.7557,5.7599,5.7506,5.7507,5.7646,5.7651,5.7656,5.7757,0,0,0,0,0,0,5.7671,5.7673,5.7698,5.7662,5.7659,5.7699,5.7619,5.7608,5.7608,5.7599,5.7569,5.7561,5.7522,5.7556,5.7559,5.7599,5.7508,5.7642,5.7649,5.7654,5.7749,5.7764,5.7777,0,0,0,0,0,5.7672,5.7728,5.7699,5.77,5.7689,5.7702,5.77,5.7653,5.7612,5.7637,5.7609,5.7562,5.7595,5.756,5.7562,5.7604,5.764,5.7647,5.7654,5.7743,5.7761,5.7777,0,0,0,0,0,0,5.7771,5.7723,5.769,5.7737,5.7724,5.7685,5.7715,5.7674,5.7673,5.7664,5.7608,5.7602,5.7643,5.7627,5.759,5.7668,5.7609,5.7617,5.7677,5.7694,5.7707,5.7709,5.7509,0,0,0,0,0,5.7798,5.7811,5.7769,5.7815,5.781,5.7764,5.7768,5.7733,5.7717,5.7711,5.7686,5.7673,5.768,5.7686,5.7691,5.7747,5.7739,5.7777,5.7791,5.7803,5.781,5.7837,5.7853,5.7681,5.7681,5.7681,0,0,5.7855,5.783,5.7842,5.7834,5.782,5.7835,5.776,5.7779,5.779,5.7715,5.7744,5.7725,5.7707,5.7753,5.7771,5.7741,5.7856,5.7812,5.7821,5.7822,5.7846,5.7862,5.7877,5.7686,5.7685,5.7684,0,0,5.7965,5.7948,5.7984,5.7971,5.795,5.7919,5.7928,5.7895,5.788,5.7908,5.7852,5.7864,5.7878,5.7867,5.7864,5.7971,5.7927,5.7974,5.8046,5.8073,5.8087,5.8098,5.8135,5.8149,5.7981,5.7982,5.7982,0,5.8038,5.8058,5.8007,5.803,5.8028,5.796,5.7995,5.7986,5.7968,5.7968,5.7934,5.795,5.7933,5.7974,5.8,5.8,5.8008,5.7976,5.8089,5.81,5.811,5.8145,5.8159,5.7987,5.7987,5.7986,5.7986,0,5.8148,5.8163,5.8194,5.8177,5.8179,5.8209,5.8163,5.817,5.8136,5.8109,5.8139,5.8117,5.8115,5.8123,5.809,5.8159,5.814,5.8099,5.8038,5.8133,5.8164,5.8177,5.7996,5.7993,5.7992,5.799,0,0,5.8319,5.8273,5.8286,5.8277,5.8249,5.826,5.8286,5.8284,5.8291,5.8282,5.8302,5.8315,5.8276,5.8272,5.8238,5.8262,5.8347,5.8217,5.8216,5.8241,5.842,5.8451,5.8467,5.8318,5.8321,5.8322,5.8421,0,5.8421,5.8462,5.8417,5.8468,5.848,5.8416,5.8439,5.8425,5.8401,5.8409,5.8382,5.8392,5.8341,5.8338,5.8359,5.8332,5.8382,5.8324,5.8336,5.8337,5.8341,5.8483,5.8515,5.861,5.8433,5.8435,5.8437,0,5.8545,5.854,5.8592,5.856,5.8564,5.8585,5.8579,5.8587,5.857,5.8551,5.8547,5.8505,5.8528,5.8471,5.8503,5.8465,5.8467,5.8455,5.8457,5.8455,5.8392,5.8484,5.8639,5.8653,5.8456,5.8455,5.8453,0,5.8662,5.8669,5.87,5.8695,5.866,5.8676,5.8662,5.8642,5.8643,5.8638,5.8638,5.8637,5.8635,5.8635,5.8594,5.8557,5.8631,5.857,5.8615,5.8616,5.8632,5.8632,5.8789,5.8637,5.8637,5.8637,5.8636,0,5.878,5.8814,5.8752,5.8772,5.8807,5.8756,5.8794,5.8773,5.8756,5.877,5.8716,5.8731,5.8676,5.8685,5.8654,5.8684,5.8685,5.8669,5.866,5.8673,5.8675,5.8673,5.8664,5.864,5.864,5.8639,5.8638,0,5.8916,5.8877,5.8906,5.887,5.8862,5.889,5.8859,5.8875,5.8848,5.8867,5.8868,5.8825,5.8833,5.8793,5.8794,5.8772,5.8818,5.8799,5.8824,5.8817,5.8863,5.8859,5.9023,5.9041,5.888,5.8882,5.8883,0,5.8993,5.9017,5.8984,5.8989,5.8977,5.8987,5.8987,5.8939,5.8942,5.8924,5.8943,5.8946,5.8946,5.8961,5.8931,5.8931,5.891,5.8968,5.891,5.8922,5.8909,5.8907,5.8909,5.8979,5.8981,5.8983,5.8984,0,5.9133,5.9112,5.9115,5.9111,5.9113,5.9108,5.9099,5.9106,5.9054,5.906,5.9067,5.9067,5.9067,5.9071,5.9065,5.9051,5.9009,5.9003,5.9013,5.9026,5.9038,5.9031,5.8855,5.8999,5.8998,5.8996,5.8996,5.8995,5.9241,5.9259,5.9238,5.9242,5.923,5.9223,5.9236,5.9211,5.9215,5.9211,5.9183,5.9195,5.9177,5.9165,5.9155,5.9164,5.9137,5.9152,5.9155,5.9159,5.9167,5.9039,5.9163,5.9163,5.9162,5.9162,5.9161,0,5.9376,5.936,5.9365,5.9353,5.9357,5.9317,5.9305,5.9311,5.9322,5.9309,5.931,5.9318,5.9321,5.9291,5.929,5.9303,5.9284,5.9305,5.9302,5.93,5.9192,5.9182,5.932,5.932,5.932,5.932,5.932,5.932,5.9447,5.9475,5.9452,5.9474,5.9457,5.9468,5.9464,5.9458,5.9447,5.9458,5.946,5.944,5.942,5.9417,5.9419,5.941,5.9412,5.9439,5.9423,5.9323,5.9307,5.9293,5.9283,5.944,5.944,5.953,5.9531,5.9531]}]]